Retour au catalogue

MAGION 3

ActifSciencePO
NORAD 21835·PAYLOAD·🇨🇿 Czechia

Lancé Dec 18, 1991 depuis Plesetsk Cosmodrome

Loading…

Prochains Passages (prochaines 24 heures)

TLE

FraisSource: Space-Track

Époque: Sep 14, 2026, 15:08 UTC

1 21835U 91086E   26257.63055733  .00000794  00000-0  14564-3 0  9990
2 21835  82.5339 127.8130 1448056 265.1583  78.3229 12.21649240524497

Suivez MAGION 3 en temps réel avec AllMySat

Download on the App Store